Location: ???? ??
(36.0534°N, 43.5630°E)
Time: 01:48:01
(UTC+00:00)

Cosmos 2219 Rocket - Pass Details

Date: 18 September 2019
Orbit: 829 x 845 km, 71.0° (Epoch: 13 October)

Event Time Altitude Azimuth Distance (km) Brightness Sun altitude
Rises 16:56:44 0° 333° (NNW) 3,377 6.0 -22.1°
Reaches altitude 10° 16:59:12 10° 329° (NNW) 2,441 5.3 -22.5°
Maximum altitude 17:04:39 56° 253° (WSW) 983 2.7 -23.6°
Enters shadow 17:08:08 22° 183° (S) 1,730 3.6 -24.2°
